Location: Buckeye Ditch
(40.9104°N, 122.9517°W)
Time: 05:32:05
(UTC+00:00)

Cosmos 1340 - Visible Passes

Search period start: 13 July 2024 00:00
Search period end: 23 July 2024 00:00
Orbit: 428 x 431 km, 81.2° (Epoch: 12 July)

Date Brightness Start Highest point End Pass type
(mag) Time Alt. Az. Time Alt. Az. Time Alt. Az.
13 Jul 2.5 12:09:27 10° SSW 12:12:42 54° WNW 12:16:00 10° N visible
14 Jul 3.3 11:27:50 10° S 11:30:57 45° E 11:34:10 10° NNE visible
15 Jul 5.0 10:47:11 10° SE 10:49:20 16° E 10:51:29 10° NE visible
15 Jul 3.8 12:20:32 10° SW 12:23:13 22° WNW 12:25:54 10° NNW visible
16 Jul 2.3 11:38:55 18° SSW 11:41:13 66° W 11:44:33 10° N visible
17 Jul 3.5 10:57:44 22° SSE 10:59:21 37° E 11:02:29 10° NNE visible
18 Jul 5.0 10:16:27 12° ESE 10:17:37 14° E 10:19:24 10° ENE visible
18 Jul 3.6 11:49:42 17° WSW 11:51:24 26° WNW 11:54:17 10° NNW visible
19 Jul 2.2 11:08:21 43° SSW 11:09:18 81° W 11:12:40 10° N visible
20 Jul 3.7 10:26:56 30° ESE 10:27:21 31° E 10:30:20 10° NNE visible
20 Jul 4.6 12:00:10 10° W 12:01:31 12° WNW 12:02:55 10° NW visible
21 Jul 5.2 09:45:27 12° E 09:45:28 12° E 09:46:41 10° ENE visible
21 Jul 3.3 11:18:41 29° W 11:19:11 31° WNW 11:22:12 10° N visible
22 Jul 2.3 10:37:07 78° NE 10:37:07 78° NE 10:40:19 10° NNE visible
